Update Server am 31.08.2026 um 17:50 Uhr
| Temperatur Luft | Temperatur 20cm | Feuchtigkeit 20cm | Niederschlag | Luftdruck | Luftdruck | Windböen | Windrichtung | Sonne | ||||
| max. | min. | max. | min. | max. | min. | Tag | max. | min. | max. | Dominierend | Tag | |
| 31.08.2026 | 17,2 °C | 17,2 °C | 19,4 °C | 19,4 °C | 123 cb | 123 cb | 0,0 l/m² | 1013,1 hPa | 1013,1 hPa | 0,0 Bft | 0 ° | 3769 Wh |
| 30.08.2026 | 28,9 °C | 17,2 °C | 19,4 °C | 18,3 °C | 123 cb | 114 cb | 0,0 l/m² | 1013,3 hPa | 1010,2 hPa | 5,0 Bft | 158 ° | 4895 Wh |
| 29.08.2026 | 24,4 °C | 14,4 °C | 18,9 °C | 18,3 °C | 119 cb | 112 cb | 0,4 l/m² | 1012,8 hPa | 1009,6 hPa | 5,0 Bft | 158 ° | 1726 Wh |
| 28.08.2026 | 24,4 °C | 14,4 °C | 18,3 °C | 17,2 °C | 116 cb | 110 cb | 1,4 l/m² | 1017,1 hPa | 1008,4 hPa | 5,0 Bft | 90 ° | 5428 Wh |
| 27.08.2026 | 27,8 °C | 10,6 °C | 18,3 °C | 16,7 °C | 115 cb | 106 cb | 0,0 l/m² | 1022,0 hPa | 1017,1 hPa | 5,0 Bft | 90 ° | 4654 Wh |
| 26.08.2026 | 26,1 °C | 10,6 °C | 18,3 °C | 16,7 °C | 111 cb | 103 cb | 0,0 l/m² | 1022,4 hPa | 1020,2 hPa | 5,0 Bft | 90 ° | 4763 Wh |
| 25.08.2026 | 25,6 °C | 9,4 °C | 18,3 °C | 16,1 °C | 108 cb | 99 cb | 0,0 l/m² | 1021,3 hPa | 1018,2 hPa | 5,0 Bft | 68 ° | 3100 Wh |
| 24.08.2026 | 22,2 °C | 12,2 °C | 17,8 °C | 16,7 °C | 103 cb | 96 cb | 0,0 l/m² | 1023,1 hPa | 1020,5 hPa | 4,0 Bft | 180 ° | 2858 Wh |
| 23.08.2026 | 20,0 °C | 12,2 °C | 18,9 °C | 17,8 °C | 99 cb | 91 cb | 0,2 l/m² | 1020,7 hPa | 1017,0 hPa | 5,0 Bft | 180 ° | 2943 Wh |
| 22.08.2026 | 22,2 °C | 15,0 °C | 20,0 °C | 18,9 °C | 94 cb | 87 cb | 1,8 l/m² | 1017,0 hPa | 1008,1 hPa | 5,0 Bft | 270 ° | 5104 Wh |
| 21.08.2026 | 27,8 °C | 13,9 °C | 20,0 °C | 18,3 °C | 91 cb | 83 cb | 5,0 l/m² | 1010,5 hPa | 1007,7 hPa | 4,0 Bft | 158 ° | 3881 Wh |
| 20.08.2026 | 25,0 °C | 16,1 °C | 20,0 °C | 18,3 °C | 86 cb | 78 cb | 2,8 l/m² | 1008,7 hPa | 1002,0 hPa | 4,0 Bft | 112 ° | 1723 Wh |
| 19.08.2026 | 22,8 °C | 15,6 °C | 19,4 °C | 18,3 °C | 81 cb | 75 cb | 4,4 l/m² | 1007,3 hPa | 1002,6 hPa | 4,0 Bft | 158 ° | 3867 Wh |
| 18.08.2026 | 23,3 °C | 14,4 °C | 19,4 °C | 18,3 °C | 78 cb | 70 cb | 0,2 l/m² | 1010,9 hPa | 1006,7 hPa | 4,0 Bft | 270 ° | 1986 Wh |
| 17.08.2026 | 21,7 °C | 12,8 °C | 20,6 °C | 19,4 °C | 72 cb | 66 cb | 1,8 l/m² | 1014,0 hPa | 1010,1 hPa | 4,0 Bft | 270 ° | 2170 Wh |
| 16.08.2026 | 22,8 °C | 14,4 °C | 22,2 °C | 20,6 °C | 68 cb | 61 cb | 2,8 l/m² | 1016,7 hPa | 1012,6 hPa | 3,0 Bft | 270 ° | 5965 Wh |
| 15.08.2026 | 37,2 °C | 11,7 °C | 22,2 °C | 19,4 °C | 63 cb | 57 cb | 0,0 l/m² | 1017,0 hPa | 1010,7 hPa | 5,0 Bft | 270 ° | 6124 Wh |
| 14.08.2026 | 32,8 °C | 9,4 °C | 21,1 °C | 18,9 °C | 59 cb | 51 cb | 0,0 l/m² | 1025,6 hPa | 1016,5 hPa | 4,0 Bft | 90 ° | 6171 Wh |
| 13.08.2026 | 28,9 °C | 8,9 °C | 20,6 °C | 18,3 °C | 53 cb | 49 cb | 0,0 l/m² | 1029,8 hPa | 1025,5 hPa | 4,0 Bft | 68 ° | 6266 Wh |
| 12.08.2026 | 26,1 °C | 7,8 °C | 20,6 °C | 18,3 °C | 50 cb | 44 cb | 0,0 l/m² | 1029,2 hPa | 1026,8 hPa | 3,0 Bft | 292 ° | 4395 Wh |
| 11.08.2026 | 22,8 °C | 12,2 °C | 21,7 °C | 20,0 °C | 46 cb | 41 cb | 0,0 l/m² | 1026,8 hPa | 1017,2 hPa | 5,0 Bft | 270 ° | 4426 Wh |
| 10.08.2026 | 32,2 °C | 16,1 °C | 21,7 °C | 20,6 °C | 42 cb | 37 cb | 0,4 l/m² | 1017,2 hPa | 1010,3 hPa | 5,0 Bft | 90 ° | 6250 Wh |
| 09.08.2026 | 32,2 °C | 10,0 °C | 21,7 °C | 19,4 °C | 39 cb | 34 cb | 0,0 l/m² | 1022,7 hPa | 1012,3 hPa | 5,0 Bft | 90 ° | 5967 Wh |
| 08.08.2026 | 25,0 °C | 11,7 °C | 21,1 °C | 20,0 °C | 35 cb | 31 cb | 0,0 l/m² | 1025,0 hPa | 1022,2 hPa | 3,0 Bft | 225 ° | 5012 Wh |
| 07.08.2026 | 23,3 °C | 14,4 °C | 22,8 °C | 21,1 °C | 32 cb | 28 cb | 0,0 l/m² | 1023,2 hPa | 1019,0 hPa | 4,0 Bft | 248 ° | 4900 Wh |
| 06.08.2026 | 30,6 °C | 18,9 °C | 23,3 °C | 22,2 °C | 29 cb | 25 cb | 0,2 l/m² | 1019,2 hPa | 1013,9 hPa | 5,0 Bft | 248 ° | 4306 Wh |
| 05.08.2026 | 32,8 °C | 17,8 °C | 23,3 °C | 21,1 °C | 27 cb | 23 cb | 1,8 l/m² | 1014,8 hPa | 1011,7 hPa | 4,0 Bft | 270 ° | 3264 Wh |
| 04.08.2026 | 29,4 °C | 17,2 °C | 22,2 °C | 20,6 °C | 24 cb | 20 cb | 0,8 l/m² | 1015,6 hPa | 1012,5 hPa | 5,0 Bft | 45 ° | 6109 Wh |
| 03.08.2026 | 31,1 °C | 11,7 °C | 21,7 °C | 18,9 °C | 21 cb | 18 cb | 0,0 l/m² | 1020,4 hPa | 1014,0 hPa | 4,0 Bft | 68 ° | 5510 Wh |
| 02.08.2026 | 26,1 °C | 12,2 °C | 21,1 °C | 18,9 °C | 19 cb | 17 cb | 0,2 l/m² | 1023,1 hPa | 1019,9 hPa | 3,0 Bft | 90 ° | 1002 Wh |
| 01.08.2026 | 21,1 °C | 14,4 °C | 22,8 °C | 20,6 °C | 151 cb | 15 cb | 27,4 l/m² | 1020,6 hPa | 1012,8 hPa | 5,0 Bft | 270 ° | 0 Wh |
| 31.07.2026 | 31,7 °C | 19,4 °C | 22,8 °C | 21,1 °C | 151 cb | 142 cb | 0,8 l/m² | 1016,9 hPa | 1012,8 hPa | 4,0 Bft | 270 ° | 6612 Wh |